Location: Kuppenheim
(48.8299°N, 8.2568°E)
Time: 19:59:14
(UTC+00:00)

Tiangong - Visible Passes

Search period start: 27 November 2022 00:00
Search period end: 07 December 2022 00:00
Orbit: 386 x 393 km, 41.5° (Epoch: 27 November)

Date Brightness Start Highest point End Pass type
(mag) Time Alt. Az. Time Alt. Az. Time Alt. Az.
01 Dec 0.3 17:43:11 10° SSW 17:44:34 15° S 17:44:34 15° S visible
02 Dec 0.5 16:45:58 10° S 16:47:15 12° SSE 16:48:33 10° SE visible
02 Dec 1.0 18:21:00 10° SW 18:21:30 13° SW 18:21:30 13° SW visible
03 Dec -0.1 17:23:09 10° SW 17:25:30 19° S 17:26:04 18° SSE visible
04 Dec 0.3 16:25:25 10° SSW 16:27:29 16° SSE 16:29:32 10° SE visible
04 Dec 0.3 18:01:17 10° SW 18:02:54 19° SSW 18:02:54 19° SSW visible
05 Dec -0.1 17:03:13 10° SW 17:05:44 21° S 17:07:26 15° SE visible
06 Dec 0.2 16:05:14 10° SW 16:07:38 19° S 16:10:01 10° ESE visible
06 Dec 0.0 17:41:33 10° WSW 17:43:59 20° S 17:44:16 20° S visible
